Weather History for KCKN - April, 2014

Change the Weather History Date:

Friday, April 25, 2014

  Actual Average Record
Temperature  
Mean Temperature 42 °F -  
Max Temperature 48 °F 57 °F 75 °F (2001)
Min Temperature 35 °F 33 °F 21 °F (2002)
Degree Days  
Heating Degree Days 24    
Moisture  
Dew Point 35 °F    
Average Humidity 84    
Maximum Humidity 100    
Minimum Humidity 62    
Precipitation  
Precipitation 0.00 in - - ()
Sea Level Pressure  
Sea Level Pressure 29.84 in    
Wind  
Wind Speed 5 mph (NE)    
Max Wind Speed 10 mph    
Max Gust Speed -    
Visibility 8 miles    
Events Fog    
Averages and records for this station are not official NWS values.
T = Trace of Precipitation, MM = Missing Value Source: NWS Daily Summary

Daily Weather History Graph

Daily Weather History Graph

Search for Another Location

Airport or City:

Trip Planner

Search our weather history database for the weather conditions in past years. The results will help you decide how hot, cold, wet, or windy it might be!

Date:

Astronomy

Apr. 25, 2014 Rise Set
Actual Time 6:18 AM CDT 8:30 PM CDT
Civil Twilight 5:45 AM CDT 9:04 PM CDT
Nautical Twilight 5:03 AM CDT 9:46 PM CDT
Astronomical Twilight 4:16 AM CDT 10:34 PM CDT
Moon 4:25 AM CDT (4/25) 4:38 PM CDT (4/25)
Length of Visible Light 15h 19m
Length of Day
14h 12m
Waning Crescent, 15% of the Moon is Illuminated
Apr 25
Waning Crescent
Apr 29
New
May 6
First Quarter
May 14
Full
May 21
Last Quarter

Hourly Weather History & Observations

Time (CDT) Temp. Windchill Dew Point Humidity Pressure Visibility Wind Dir Wind Speed Gust Speed Precip Events Conditions
12:15 AM 35.6 °F 32.8 °F 35.6 °F 100% 29.71 in 10.0 mi ENE 3.5 mph - N/A   Overcast
12:34 AM 35.6 °F 31.7 °F 35.6 °F 100% 29.72 in 5.0 mi NE 4.6 mph - N/A   Overcast
12:54 AM 35.6 °F - 35.6 °F 100% 29.72 in 4.0 mi Calm Calm - N/A   Overcast
1:15 AM 35.6 °F 32.8 °F 35.6 °F 100% 29.73 in 4.0 mi NE 3.5 mph - N/A   Overcast
1:34 AM 35.6 °F - 35.6 °F 100% 29.73 in 2.5 mi Calm Calm - N/A   Overcast
1:55 AM 35.6 °F - 35.6 °F 100% 29.73 in 0.8 mi Calm Calm - N/A   Overcast
2:14 AM 35.6 °F - 35.6 °F 100% 29.73 in 0.5 mi Calm Calm - N/A Fog Fog
2:34 AM 35.6 °F - 35.6 °F 100% 29.72 in 0.5 mi Calm Calm - N/A Fog Fog
2:55 AM 35.6 °F 32.8 °F 35.6 °F 100% 29.73 in 0.5 mi NNW 3.5 mph - N/A Fog Fog
3:14 AM 35.6 °F 32.8 °F 35.6 °F 100% 29.74 in 0.8 mi NNW 3.5 mph - N/A   Overcast
3:34 AM 35.6 °F 31.7 °F 35.6 °F 100% 29.73 in 1.0 mi NNW 4.6 mph - N/A   Overcast
3:55 AM 35.6 °F 30.7 °F 35.6 °F 100% 29.74 in 0.8 mi North 5.8 mph - N/A   Overcast
4:14 AM 35.6 °F 29.9 °F 35.6 °F 100% 29.74 in 0.8 mi North 6.9 mph - N/A   Overcast
4:34 AM 35.6 °F 31.7 °F 35.6 °F 100% 29.75 in 2.0 mi North 4.6 mph - N/A   Overcast
4:55 AM 35.6 °F 30.7 °F 35.6 °F 100% 29.75 in 3.0 mi North 5.8 mph - N/A   Overcast
5:14 AM 35.6 °F 31.7 °F 35.6 °F 100% 29.75 in 3.0 mi North 4.6 mph - N/A   Overcast
5:35 AM 35.6 °F 31.7 °F 35.6 °F 100% 29.76 in 7.0 mi North 4.6 mph - N/A   Overcast
5:54 AM 35.6 °F 30.7 °F 35.6 °F 100% 29.76 in 7.0 mi NNW 5.8 mph - N/A   Overcast
6:14 AM 35.6 °F 30.7 °F 35.6 °F 100% 29.77 in 7.0 mi North 5.8 mph - N/A   Overcast
6:35 AM 35.6 °F 32.8 °F 35.6 °F 100% 29.77 in 10.0 mi North 3.5 mph - N/A   Overcast
6:54 AM 35.6 °F 30.7 °F 35.6 °F 100% 29.78 in 10.0 mi NNE 5.8 mph - N/A   Overcast
7:14 AM 35.6 °F 31.7 °F 35.6 °F 100% 29.78 in 10.0 mi NNE 4.6 mph - N/A   Overcast
7:35 AM 35.6 °F 31.7 °F 35.6 °F 100% 29.79 in 10.0 mi North 4.6 mph - N/A   Overcast
7:54 AM 35.6 °F 31.7 °F 35.6 °F 100% 29.79 in 10.0 mi NNE 4.6 mph - N/A   Overcast
8:15 AM 35.6 °F 32.8 °F 35.6 °F 100% 29.80 in 10.0 mi North 3.5 mph - N/A   Overcast
8:34 AM 35.6 °F 32.8 °F 33.8 °F 93% 29.81 in 7.0 mi North 3.5 mph - N/A   Overcast
8:54 AM 35.6 °F 32.8 °F 33.8 °F 93% 29.81 in 7.0 mi North 3.5 mph - N/A   Overcast
9:15 AM 35.6 °F 32.8 °F 35.6 °F 100% 29.82 in 10.0 mi NNW 3.5 mph - N/A   Overcast
9:34 AM 35.6 °F 31.7 °F 35.6 °F 100% 29.82 in 10.0 mi North 4.6 mph - N/A   Overcast
9:54 AM 37.4 °F 33.8 °F 35.6 °F 93% 29.82 in 10.0 mi NNE 4.6 mph - N/A   Overcast
10:15 AM 37.4 °F 32.1 °F 35.6 °F 93% 29.83 in 10.0 mi NE 6.9 mph - N/A   Mostly Cloudy
10:34 AM 37.4 °F 32.1 °F 35.6 °F 93% 29.83 in 10.0 mi NNE 6.9 mph - N/A   Mostly Cloudy
10:54 AM 39.2 °F 35.0 °F 35.6 °F 87% 29.83 in 10.0 mi NNE 5.8 mph - N/A   Mostly Cloudy
11:15 AM 39.2 °F 35.0 °F 35.6 °F 87% 29.83 in 10.0 mi NNE 5.8 mph - N/A   Overcast
11:34 AM 41.0 °F 37.1 °F 35.6 °F 81% 29.84 in 10.0 mi NE 5.8 mph - N/A   Mostly Cloudy
11:54 AM 44.6 °F 40.7 °F 35.6 °F 71% 29.84 in 10.0 mi NNE 6.9 mph - N/A   Mostly Cloudy
12:15 PM 42.8 °F 39.3 °F 35.6 °F 76% 29.84 in 10.0 mi North 5.8 mph - N/A   Overcast
12:34 PM 44.6 °F 39.7 °F 35.6 °F 71% 29.84 in 10.0 mi North 9.2 mph - N/A   Overcast
12:54 PM 44.6 °F 40.2 °F 35.6 °F 71% 29.84 in 10.0 mi NNE 8.1 mph - N/A   Overcast
1:15 PM 44.6 °F 41.4 °F 35.6 °F 71% 29.85 in 10.0 mi NNE 5.8 mph - N/A   Overcast
1:34 PM 46.4 °F 43.5 °F 35.6 °F 66% 29.85 in 10.0 mi NNE 5.8 mph - N/A   Overcast
1:55 PM 46.4 °F 42.4 °F 35.6 °F 66% 29.86 in 10.0 mi NE 8.1 mph - N/A   Mostly Cloudy
2:14 PM 46.4 °F 43.5 °F 35.6 °F 66% 29.86 in 10.0 mi NNE 5.8 mph - N/A   Overcast
2:34 PM 46.4 °F 41.5 °F 35.6 °F 66% 29.86 in 10.0 mi NE 10.4 mph - N/A   Overcast
2:55 PM 46.4 °F 42.9 °F 35.6 °F 66% 29.87 in 10.0 mi NE 6.9 mph - N/A   Overcast
3:14 PM 46.4 °F 43.5 °F 35.6 °F 66% 29.87 in 10.0 mi ENE 5.8 mph - N/A   Overcast
3:35 PM 46.4 °F 41.5 °F 35.6 °F 66% 29.87 in 10.0 mi NE 10.4 mph - N/A   Overcast
3:54 PM 46.4 °F 45.2 °F 35.6 °F 66% 29.88 in 10.0 mi ENE 3.5 mph - N/A   Mostly Cloudy
4:14 PM 48.2 °F - 35.6 °F 62% 29.88 in 10.0 mi NE 6.9 mph - N/A   Scattered Clouds
4:35 PM 48.2 °F - 35.6 °F 62% 29.88 in 10.0 mi ENE 5.8 mph - N/A   Mostly Cloudy
4:54 PM 48.2 °F - 35.6 °F 62% 29.88 in 5.0 mi ENE 10.4 mph - N/A   Haze
5:15 PM 48.2 °F - 35.6 °F 62% 29.88 in 10.0 mi ENE 9.2 mph - N/A   Mostly Cloudy
5:34 PM 48.2 °F - 35.6 °F 62% 29.89 in 10.0 mi ENE 9.2 mph - N/A   Scattered Clouds
5:54 PM 48.2 °F - 35.6 °F 62% 29.89 in 10.0 mi East 5.8 mph - N/A   Scattered Clouds
6:15 PM 48.2 °F - 35.6 °F 62% 29.89 in 10.0 mi East 10.4 mph - N/A   Mostly Cloudy
6:34 PM 48.2 °F - 35.6 °F 62% 29.90 in 10.0 mi ENE 9.2 mph - N/A   Scattered Clouds
6:55 PM 48.2 °F - 35.6 °F 62% 29.90 in 10.0 mi East 8.1 mph - N/A   Scattered Clouds
7:14 PM 46.4 °F 42.4 °F 35.6 °F 66% 29.91 in 10.0 mi East 8.1 mph - N/A   Scattered Clouds
7:34 PM 46.4 °F 41.9 °F 35.6 °F 66% 29.91 in 10.0 mi East 9.2 mph - N/A   Scattered Clouds
7:55 PM 44.6 °F 40.7 °F 35.6 °F 71% 29.91 in 10.0 mi East 6.9 mph - N/A   Clear
8:14 PM 44.6 °F 40.7 °F 35.6 °F 71% 29.93 in 10.0 mi East 6.9 mph - N/A   Clear
8:35 PM 42.8 °F 40.1 °F 33.8 °F 70% 29.94 in 10.0 mi ENE 4.6 mph - N/A   Clear
8:54 PM 42.8 °F 39.3 °F 35.6 °F 76% 29.95 in 10.0 mi ENE 5.8 mph - N/A   Clear
9:14 PM 41.0 °F 38.0 °F 35.6 °F 81% 29.96 in 10.0 mi ENE 4.6 mph - N/A   Clear
9:35 PM 41.0 °F 38.0 °F 35.6 °F 81% 29.97 in 10.0 mi NE 4.6 mph - N/A   Scattered Clouds
9:54 PM 39.2 °F 35.9 °F 35.6 °F 87% 29.97 in 10.0 mi NE 4.6 mph - N/A   Mostly Cloudy
10:14 PM 39.2 °F 35.9 °F 35.6 °F 87% 29.97 in 10.0 mi ENE 4.6 mph - N/A   Overcast
10:35 PM 41.0 °F 38.0 °F 33.8 °F 76% 29.97 in 10.0 mi East 4.6 mph - N/A   Scattered Clouds
10:54 PM 39.2 °F 35.9 °F 33.8 °F 81% 29.97 in 10.0 mi East 4.6 mph - N/A   Clear
11:15 PM 39.2 °F 35.9 °F 33.8 °F 81% 29.97 in 10.0 mi East 4.6 mph - N/A   Clear
11:35 PM 37.4 °F - 33.8 °F 87% 29.97 in 10.0 mi Calm Calm - N/A   Clear